Weather History for Koksijde, Belgium

Change the Weather History Date:

Sunday, October 6, 2013

  Actual Average Record
Temperature  
Mean Temperature 56 °F -  
Max Temperature 65 °F 53 °F 73 °F (1997)
Min Temperature 48 °F 46 °F 44 °F (1997)
Degree Days  
Heating Degree Days 8    
Growing Degree Days 6 (Base 50)    
Moisture  
Dew Point 51 °F    
Average Humidity 81    
Maximum Humidity 100    
Minimum Humidity 45    
Precipitation  
Precipitation 0.00 in - - ()
Sea Level Pressure  
Sea Level Pressure 30.28 in    
Wind  
Wind Speed 2 mph ()    
Max Wind Speed 6 mph    
Max Gust Speed -    
Visibility 5.6 miles    
Events Fog    
Averages and records for this station are not official NWS values.
T = Trace of Precipitation, MM = Missing Value Source: Averaged Metar Reports

Daily Weather History Graph

Daily Weather History Graph

Search for Another Location

Airport:

Trip Planner

Search our weather history database for the weather conditions in past years. The results will help you decide how hot, cold, wet, or windy it might be!

Date:

Astronomy

Oct. 06, 2013 Rise Set
Actual Time 7:58 AM CEST 7:15 PM CEST
Civil Twilight 7:24 AM CEST 7:48 PM CEST
Nautical Twilight 6:46 AM CEST 8:27 PM CEST
Astronomical Twilight 6:07 AM CEST 9:05 PM CEST
Moon 9:39 AM CEST (10/6) 7:48 PM CEST (10/6)
Length of Visible Light 12h 23m
Length of Day
11h 17m
New Moon, 2% of the Moon is Illuminated
Oct 6
New Moon
Oct 12
First Quarter
Oct 19
Full
Oct 27
Last Quarter
Nov 3
New

Hourly Weather History & Observations

Time (CEST) Temp. Dew Point Humidity Pressure Visibility Wind Dir Wind Speed Gust Speed Precip Events Conditions
12:25 AM 57.2 °F 57.2 °F 100% 30.24 in 6.2 mi Variable 2.3 mph - N/A   Mostly Cloudy
12:55 AM 57.2 °F 57.2 °F 100% 30.24 in 6.2 mi Variable 2.3 mph - N/A   Mostly Cloudy
1:25 AM 57.2 °F 57.2 °F 100% 30.24 in 6.2 mi Variable 2.3 mph - N/A   Mostly Cloudy
1:55 AM 57.2 °F 55.4 °F 94% 30.24 in 6.2 mi Variable 2.3 mph - N/A   Mostly Cloudy
2:00 AM 57 °F 56 °F 95% 30.26 in 6 mi 2.2 mph - -   Mostly Cloudy
2:25 AM 57.2 °F 55.4 °F 94% 30.24 in 6.2 mi Variable 2.3 mph - N/A   Mostly Cloudy
2:55 AM 57.2 °F 55.4 °F 94% 30.24 in 6.2 mi Variable 2.3 mph - N/A   Mostly Cloudy
3:25 AM 57.2 °F 57.2 °F 100% 30.24 in 5.6 mi NW 3.5 mph - N/A   Mostly Cloudy
3:55 AM 57.2 °F 55.4 °F 94% 30.24 in 5.6 mi Variable 2.3 mph - N/A   Mostly Cloudy
4:25 AM 55.4 °F 55.4 °F 100% 30.24 in 5.0 mi Variable 1.2 mph - N/A   Mostly Cloudy
4:51 AM 55.4 °F 55.4 °F 100% 30.24 in 4.3 mi Variable 1.2 mph - N/A   Scattered Clouds
4:55 AM 55.4 °F 53.6 °F 94% 30.24 in 3.7 mi Variable 1.2 mph - N/A   Scattered Clouds
5:25 AM 53.6 °F 53.6 °F 100% 30.24 in 3.1 mi Variable 2.3 mph - N/A   Scattered Clouds
5:34 AM 53.6 °F 53.6 °F 100% 30.24 in 2.5 mi Variable 2.3 mph - N/A Fog Fog
5:40 AM 53.6 °F 53.6 °F 100% 30.24 in 2.2 mi Variable 2.3 mph - N/A Fog Fog
5:55 AM 51.8 °F 51.8 °F 100% 30.27 in 1.9 mi Variable 2.3 mph - N/A Fog Fog
6:25 AM 51.8 °F 50.0 °F 94% 30.27 in 1.6 mi Variable 2.3 mph - N/A Fog Fog
6:55 AM 50.0 °F 50.0 °F 100% 30.27 in 1.6 mi WSW 3.5 mph - N/A   Partly Cloudy
7:25 AM 50.0 °F 50.0 °F 100% 30.27 in 1.6 mi WSW 3.5 mph - N/A   Partly Cloudy
7:42 AM 50.0 °F 48.2 °F 94% 30.27 in 2.5 mi Variable 2.3 mph - N/A Fog Fog
7:55 AM 50.0 °F 50.0 °F 100% 30.27 in 2.8 mi Variable 2.3 mph - N/A Fog Fog
8:12 AM 50.0 °F 50.0 °F 100% 30.27 in 4.3 mi Variable 2.3 mph - N/A Fog Fog
8:55 AM 50.0 °F 50.0 °F 100% 30.27 in 4.3 mi Variable 1.2 mph - N/A   Scattered Clouds
9:25 AM 53.6 °F 53.6 °F 100% 30.30 in 4.3 mi Variable 1.2 mph - N/A   Partly Cloudy
9:52 AM 57.2 °F 55.4 °F 94% 30.30 in 5.0 mi Variable 1.2 mph - N/A   Partly Cloudy
9:55 AM 57.2 °F 55.4 °F 94% 30.30 in 5.0 mi Variable 1.2 mph - N/A   Partly Cloudy
10:25 AM 59.0 °F 57.2 °F 94% 30.30 in 6.2 mi Variable 2.3 mph - N/A   Scattered Clouds
10:55 AM 62.6 °F 50.0 °F 63% 30.30 in 6.2 mi NNW 4.6 mph - N/A   Partly Cloudy
11:00 AM 62 °F 50 °F 56% 30.32 in 8 mi NNW 4.5 mph - -   Scattered Clouds
11:25 AM 62.6 °F 50.0 °F 63% 30.30 in 6.2 mi NNW 4.6 mph - N/A   Partly Cloudy
11:55 AM 62.6 °F 48.2 °F 59% 30.30 in 6.2 mi North 3.5 mph - N/A   Partly Cloudy
12:25 PM 62.6 °F 46.4 °F 55% 30.30 in 6.2 mi North 3.5 mph - N/A   Scattered Clouds
12:55 PM 64.4 °F 48.2 °F 56% 30.30 in 6.2 mi North 3.5 mph - N/A   Scattered Clouds
1:25 PM 64.4 °F 48.2 °F 56% 30.30 in 6.2 mi North 4.6 mph - N/A   Scattered Clouds
1:55 PM 64.4 °F 48.2 °F 56% 30.30 in 6.2 mi Variable 2.3 mph - N/A   Scattered Clouds
2:00 PM 65 °F 49 °F 45% 30.32 in 19 mi 2.2 mph - -   Scattered Clouds
2:25 PM 64.4 °F 48.2 °F 56% 30.30 in 6.2 mi NNW 4.6 mph - N/A   Scattered Clouds
2:55 PM 64.4 °F 48.2 °F 56% 30.30 in 6.2 mi North 4.6 mph - N/A   Scattered Clouds
3:25 PM 64.4 °F 48.2 °F 56% 30.30 in 6.2 mi North 5.8 mph - N/A   Scattered Clouds
3:55 PM 64.4 °F 48.2 °F 56% 30.30 in 6.2 mi North 4.6 mph - N/A   Scattered Clouds
4:25 PM 64.4 °F 48.2 °F 56% 30.30 in 6.2 mi North 5.8 mph - N/A   Scattered Clouds
4:55 PM 62.6 °F 48.2 °F 59% 30.30 in 6.2 mi North 4.6 mph - N/A   Scattered Clouds
5:00 PM 63 °F 48 °F 47% 30.30 in 22 mi North 4.5 mph - -   Scattered Clouds
5:25 PM 62.6 °F 46.4 °F 55% 30.30 in 6.2 mi NNE 5.8 mph - N/A   Scattered Clouds
5:55 PM 62.6 °F 48.2 °F 59% 30.30 in 6.2 mi NNE 3.5 mph - N/A   Scattered Clouds
6:25 PM 60.8 °F 48.2 °F 63% 30.30 in 6.2 mi NE 3.5 mph - N/A   Scattered Clouds
6:55 PM 59.0 °F 48.2 °F 67% 30.30 in 6.2 mi Variable 3.5 mph - N/A   Scattered Clouds
7:25 PM 59.0 °F 48.2 °F 67% 30.30 in 6.2 mi Variable 2.3 mph - N/A   Scattered Clouds
7:55 PM 57.2 °F 48.2 °F 72% 30.30 in 6.2 mi Variable 1.2 mph - N/A   Scattered Clouds
8:00 PM 57 °F 48 °F 63% 30.32 in 22 mi 2.2 mph - -   Scattered Clouds
8:25 PM 55.4 °F 48.2 °F 77% 30.30 in 6.2 mi Variable 1.2 mph - N/A   Scattered Clouds
8:55 PM 53.6 °F 48.2 °F 82% 30.30 in 6.2 mi Variable 1.2 mph - N/A   Scattered Clouds
9:25 PM 51.8 °F 48.2 °F 88% 30.30 in 6.2 mi Variable 1.2 mph - N/A   Scattered Clouds
9:55 PM 51.8 °F 48.2 °F 88% 30.30 in 6.2 mi Variable 1.2 mph - N/A   Scattered Clouds
10:25 PM 50.0 °F 48.2 °F 94% 30.33 in 6.2 mi Variable 1.2 mph - N/A   Scattered Clouds
10:55 PM 50.0 °F 48.2 °F 94% 30.33 in 6.2 mi Variable 1.2 mph - N/A   Scattered Clouds
11:00 PM 50 °F 47 °F 88% 30.33 in 11 mi 2.2 mph - -   Scattered Clouds
11:25 PM 48.2 °F 46.4 °F 93% 30.33 in 6.2 mi Variable 2.3 mph - N/A   Scattered Clouds
11:55 PM 50.0 °F 48.2 °F 94% 30.33 in 6.2 mi Variable 2.3 mph - N/A   Partly Cloudy